Time,TemperatureF,DewpointF,PressureIn,WindDirection,WindDirectionDegrees,WindSpeedMPH,WindSpeedGustMPH,Humidity,HourlyPrecipIn,Conditions,Clouds,dailyrainin,SoftwareType,DateUTC
2013-08-16 00:11:00,63.0,59.0,29.96,West,269,0.0,-999.0,88,-99.99,,,-99.99,,2013-08-16 07:11:00,
2013-08-16 00:21:00,62.0,59.0,29.96,West,269,0.0,-999.0,89,-99.99,,,-99.99,,2013-08-16 07:21:00,
2013-08-16 00:42:00,62.0,59.0,29.96,West,269,0.0,-999.0,90,-99.99,,,-99.99,,2013-08-16 07:42:00,
2013-08-16 00:52:00,61.0,58.0,29.96,West,269,0.0,-999.0,91,-99.99,,,-99.99,,2013-08-16 07:52:00,
2013-08-16 01:11:00,61.0,58.0,29.96,West,269,0.0,-999.0,91,-99.99,,,-99.99,,2013-08-16 08:11:00,
2013-08-16 01:21:00,61.0,59.0,29.96,West,269,0.0,-999.0,92,-99.99,,,-99.99,,2013-08-16 08:21:00,
2013-08-16 01:52:00,61.0,59.0,29.95,West,269,0.0,-999.0,92,-99.99,,,-99.99,,2013-08-16 08:52:00,
2013-08-16 02:11:00,61.0,59.0,29.95,West,269,0.0,-999.0,92,-99.99,,,-99.99,,2013-08-16 09:11:00,
2013-08-16 02:21:00,61.0,59.0,29.95,West,269,0.0,-999.0,92,-99.99,,,-99.99,,2013-08-16 09:21:00,
2013-08-16 02:53:00,60.0,58.0,29.95,West,269,0.0,-999.0,93,-99.99,,,-99.99,,2013-08-16 09:53:00,
2013-08-16 03:13:00,60.0,58.0,29.95,West,269,0.0,-999.0,93,-99.99,,,-99.99,,2013-08-16 10:13:00,
2013-08-16 03:23:00,60.0,58.0,29.94,West,269,0.0,-999.0,93,-99.99,,,-99.99,,2013-08-16 10:23:00,
2013-08-16 03:52:00,60.0,58.0,29.94,West,269,0.0,-999.0,93,-99.99,,,-99.99,,2013-08-16 10:52:00,
2013-08-16 04:12:00,60.0,58.0,29.94,West,269,0.0,-999.0,94,-99.99,,,-99.99,,2013-08-16 11:12:00,
2013-08-16 04:21:00,60.0,58.0,29.94,West,269,0.0,-999.0,94,-99.99,,,-99.99,,2013-08-16 11:21:00,
2013-08-16 04:52:00,60.0,58.0,29.93,West,269,0.0,-999.0,94,-99.99,,,-99.99,,2013-08-16 11:52:00,
2013-08-16 05:12:00,60.0,58.0,29.93,West,269,0.0,-999.0,93,-99.99,,,-99.99,,2013-08-16 12:12:00,
2013-08-16 05:21:00,60.0,58.0,29.93,West,269,0.0,-999.0,94,-99.99,,,-99.99,,2013-08-16 12:21:00,
2013-08-16 05:52:00,59.0,57.0,29.93,West,269,0.0,-999.0,94,-99.99,,,-99.99,,2013-08-16 12:52:00,
2013-08-16 06:11:00,59.0,57.0,29.93,West,269,0.0,-999.0,94,-99.99,,,-99.99,,2013-08-16 13:11:00,
2013-08-16 06:21:00,59.0,57.0,29.94,West,269,0.0,-999.0,94,-99.99,,,-99.99,,2013-08-16 13:21:00,
2013-08-16 06:42:00,59.0,57.0,29.93,West,269,0.0,-999.0,94,-99.99,,,-99.99,,2013-08-16 13:42:00,
2013-08-16 06:53:00,59.0,57.0,29.94,West,269,0.0,-999.0,94,-99.99,,,-99.99,,2013-08-16 13:53:00,
2013-08-16 07:11:00,59.0,57.0,29.95,West,269,0.0,-999.0,94,-99.99,,,-99.99,,2013-08-16 14:11:00,
2013-08-16 07:21:00,59.0,57.0,29.96,West,269,0.0,-999.0,94,-99.99,,,-99.99,,2013-08-16 14:21:00,
2013-08-16 07:41:00,59.0,57.0,29.96,West,269,0.0,-999.0,94,-99.99,,,-99.99,,2013-08-16 14:41:00,
2013-08-16 07:52:00,59.0,57.0,29.96,West,269,0.0,-999.0,94,-99.99,,,-99.99,,2013-08-16 14:52:00,
2013-08-16 08:12:00,60.0,58.0,29.97,West,269,0.0,-999.0,94,-99.99,,,-99.99,,2013-08-16 15:12:00,
2013-08-16 08:22:00,60.0,58.0,29.97,West,269,0.0,-999.0,94,-99.99,,,-99.99,,2013-08-16 15:22:00,
2013-08-16 08:56:00,61.0,60.0,29.98,West,269,0.0,-999.0,95,-99.99,,,-99.99,,2013-08-16 15:56:00,
2013-08-16 09:13:00,62.0,60.0,29.98,West,269,0.0,-999.0,94,-99.99,,,-99.99,,2013-08-16 16:13:00,
2013-08-16 09:23:00,64.0,62.0,29.97,West,269,0.0,-999.0,92,-99.99,,,-99.99,,2013-08-16 16:23:00,
2013-08-16 09:57:00,68.0,62.0,29.97,West,269,0.0,-999.0,81,-99.99,,,-99.99,,2013-08-16 16:57:00,
2013-08-16 10:12:00,71.0,62.0,29.96,West,269,0.0,-999.0,74,-99.99,,,-99.99,,2013-08-16 17:12:00,
2013-08-16 10:28:00,73.0,62.0,29.96,West,269,0.0,-999.0,69,-99.99,,,-99.99,,2013-08-16 17:28:00,
2013-08-16 11:00:00,77.0,61.0,29.96,West,269,1.0,-999.0,58,-99.99,,,-99.99,,2013-08-16 18:00:00,
2013-08-16 11:15:00,79.0,62.0,29.96,West,267,3.0,-999.0,56,-99.99,,,-99.99,,2013-08-16 18:15:00,
2013-08-16 11:27:00,80.0,62.0,29.96,WSW,249,3.0,-999.0,54,-99.99,,,-99.99,,2013-08-16 18:27:00,
2013-08-16 11:50:00,-999.0,-99.9,29.96,NW,308,4.0,-999.0,52,-99.99,,,-99.99,,2013-08-16 18:50:00,
2013-08-16 12:14:00,81.0,62.0,29.96,WNW,284,4.0,-999.0,53,-99.99,,,-99.99,,2013-08-16 19:14:00,
2013-08-16 12:25:00,81.0,62.0,29.96,WSW,252,5.0,-999.0,53,-99.99,,,-99.99,,2013-08-16 19:25:00,
2013-08-16 12:55:00,82.0,63.0,29.96,West,263,5.0,-999.0,53,-99.99,,,-99.99,,2013-08-16 19:55:00,
2013-08-16 13:02:00,82.0,63.0,29.96,West,263,5.0,-999.0,53,-99.99,,,-99.99,,2013-08-16 20:02:00,
2013-08-16 13:11:00,82.0,63.0,29.96,West,263,5.0,-999.0,53,-99.99,,,-99.99,,2013-08-16 20:11:00,
2013-08-16 13:23:00,81.0,63.0,29.95,WNW,298,5.0,-999.0,55,-99.99,,,-99.99,,2013-08-16 20:23:00,
2013-08-16 13:52:00,81.0,63.0,29.95,WSW,252,5.0,-999.0,55,-99.99,,,-99.99,,2013-08-16 20:52:00,
2013-08-16 14:11:00,81.0,64.0,29.96,WNW,286,5.0,-999.0,56,-99.99,,,-99.99,,2013-08-16 21:11:00,
2013-08-16 14:25:00,82.0,63.0,29.95,WNW,293,4.0,-999.0,52,-99.99,,,-99.99,,2013-08-16 21:25:00,
2013-08-16 14:40:00,-999.0,-99.9,29.95,WNW,288,5.0,-999.0,-999,-99.99,,,-99.99,,2013-08-16 21:40:00,
2013-08-16 14:53:00,81.0,62.0,29.95,West,281,5.0,-999.0,52,-99.99,,,-99.99,,2013-08-16 21:53:00,
2013-08-16 15:13:00,81.0,62.0,29.95,West,271,5.0,-999.0,53,-99.99,,,-99.99,,2013-08-16 22:13:00,
2013-08-16 15:24:00,81.0,61.0,29.94,NW,309,5.0,-999.0,51,-99.99,,,-99.99,,2013-08-16 22:24:00,
2013-08-16 15:52:00,82.0,60.0,29.94,WSW,255,4.0,-999.0,48,-99.99,,,-99.99,,2013-08-16 22:52:00,
2013-08-16 16:12:00,82.0,60.0,29.93,SW,223,3.0,-999.0,47,-99.99,,,-99.99,,2013-08-16 23:12:00,
2013-08-16 16:23:00,82.0,55.0,29.93,WSW,238,2.0,-999.0,39,-99.99,,,-99.99,,2013-08-16 23:23:00,
2013-08-16 16:52:00,82.0,60.0,29.93,WSW,250,2.0,-999.0,48,-99.99,,,-99.99,,2013-08-16 23:52:00,
2013-08-16 17:11:00,81.0,60.0,29.92,West,281,3.0,-999.0,49,-99.99,,,-99.99,,2013-08-17 00:11:00,
2013-08-16 17:21:00,81.0,60.0,29.92,WSW,245,2.0,-999.0,49,-99.99,,,-99.99,,2013-08-17 00:21:00,
2013-08-16 17:41:00,81.0,59.0,29.92,WSW,248,2.0,-999.0,48,-99.99,,,-99.99,,2013-08-17 00:41:00,
2013-08-16 17:51:00,81.0,60.0,29.92,WNW,294,1.0,-999.0,49,-99.99,,,-99.99,,2013-08-17 00:51:00,
2013-08-16 18:11:00,81.0,59.0,29.92,WNW,295,1.0,-999.0,48,-99.99,,,-99.99,,2013-08-17 01:11:00,
2013-08-16 18:21:00,80.0,59.0,29.92,West,261,1.0,-999.0,49,-99.99,,,-99.99,,2013-08-17 01:21:00,
2013-08-16 18:41:00,80.0,60.0,29.92,WNW,286,1.0,-999.0,50,-99.99,,,-99.99,,2013-08-17 01:41:00,
2013-08-16 18:52:00,79.0,59.0,29.92,West,270,0.0,-999.0,51,-99.99,,,-99.99,,2013-08-17 01:52:00,
2013-08-16 19:11:00,78.0,59.0,29.92,West,277,1.0,-999.0,53,-99.99,,,-99.99,,2013-08-17 02:11:00,
2013-08-16 19:21:00,77.0,60.0,29.92,West,261,2.0,-999.0,56,-99.99,,,-99.99,,2013-08-17 02:21:00,
2013-08-16 19:42:00,76.0,60.0,29.92,West,264,1.0,-999.0,57,-99.99,,,-99.99,,2013-08-17 02:42:00,
2013-08-16 19:51:00,74.0,60.0,29.93,West,264,1.0,-999.0,61,-99.99,,,-99.99,,2013-08-17 02:51:00,
2013-08-16 20:11:00,73.0,60.0,29.93,West,263,1.0,-999.0,64,-99.99,,,-99.99,,2013-08-17 03:11:00,
2013-08-16 20:21:00,71.0,59.0,29.93,West,263,0.0,-999.0,65,-99.99,,,-99.99,,2013-08-17 03:21:00,
2013-08-16 20:53:00,70.0,59.0,29.94,West,263,0.0,-999.0,68,-99.99,,,-99.99,,2013-08-17 03:53:00,
2013-08-16 21:12:00,70.0,59.0,29.94,West,263,0.0,-999.0,69,-99.99,,,-99.99,,2013-08-17 04:12:00,
2013-08-16 21:23:00,69.0,59.0,29.95,West,263,0.0,-999.0,70,-99.99,,,-99.99,,2013-08-17 04:23:00,
2013-08-16 21:53:00,69.0,59.0,29.95,West,263,0.0,-999.0,71,-99.99,,,-99.99,,2013-08-17 04:53:00,
2013-08-16 22:12:00,68.0,58.0,29.95,West,263,0.0,-999.0,71,-99.99,,,-99.99,,2013-08-17 05:12:00,
2013-08-16 22:22:00,68.0,58.0,29.96,West,263,0.0,-999.0,71,-99.99,,,-99.99,,2013-08-17 05:22:00,
2013-08-16 22:42:00,67.0,58.0,29.95,West,263,0.0,-999.0,73,-99.99,,,-99.99,,2013-08-17 05:42:00,
2013-08-16 22:51:00,67.0,58.0,29.96,West,263,0.0,-999.0,73,-99.99,,,-99.99,,2013-08-17 05:51:00,
2013-08-16 23:12:00,67.0,58.0,29.96,West,263,0.0,-999.0,73,-99.99,,,-99.99,,2013-08-17 06:12:00,
2013-08-16 23:21:00,67.0,59.0,29.96,West,263,0.0,-999.0,75,-99.99,,,-99.99,,2013-08-17 06:21:00,
2013-08-16 23:51:00,66.0,59.0,29.96,West,263,0.0,-999.0,77,-99.99,,,-99.99,,2013-08-17 06:51:00,